User: anonymous   Login
Location: Caltech
(34.1382°N, 118.1253°W)
Time: 08:16:03
(UTC-07:00)
Language:

Oscar 16 - Orbit

View from above orbital plane
View from above orbital plane
View from above satellite
View from above satellite

Ground track
Ground track

The orbit data is extracted from the following two-line orbital elements,

1 20439U 90005D   17086.81432417 +.00000039 +00000-0 +30491-4 0  9997
2 20439 098.6031 026.6984 0011728 046.8240 027.3245 14.32672578419502
Epoch (UTC): 27 March 2017 19:32:37
Eccentricity: 0.0011728
inclination: 98.6031°
perigee height: 774 km
apogee height: 791 km
right ascension of ascending node: 26.6984°
argument of perigee: 46.8240°
revolutions per day: 14.32672578
mean anomaly at epoch: 27.3245°
orbit number at epoch: 41950

The dashed part of the orbit path shows where the satellite is in the earth's shadow,  

DLR